| time (UTC) | temp C | wind direction | speed KPH | gust KPH | rain 1hr cm | rain 24hr cm | rain mn cm | humidity % | barometer mb |
| 20260502162850 | 21 | 17 | 3.2 | 11.3 | 0.00 | 0.00 | 0.00 | 56 | 1021.4 |
| 20260502162346 | 21 | 32 | 4.8 | 9.7 | 0.00 | 0.00 | 0.00 | 56 | 1021.4 |
| 20260502161843 | 21 | 297 | 6.4 | 9.7 | 0.00 | 0.00 | 0.00 | 55 | 1021.3 |
| 20260502161339 | 21 | 354 | 4.8 | 9.7 | 0.00 | 0.00 | 0.00 | 59 | 1021.4 |
| 20260502160837 | 20 | 344 | 6.4 | 11.3 | 0.00 | 0.00 | 0.00 | 60 | 1021.6 |
| 20260502160336 | 20 | 31 | 3.2 | 12.9 | 0.00 | 0.00 | 0.00 | 60 | 1021.5 |
| 20260502152310 | 18 | 350 | 4.8 | 12.9 | 0.00 | 0.00 | 0.00 | 66 | 1021.4 |
| 20260502151808 | 18 | 302 | 3.2 | 11.3 | 0.00 | 0.00 | 0.00 | 67 | 1021.5 |
| 20260502151305 | 19 | 38 | 6.4 | 12.9 | 0.00 | 0.00 | 0.00 | 65 | 1021.3 |
| 20260502150803 | 19 | 1 | 3.2 | 4.8 | 0.00 | 0.00 | 0.00 | 69 | 1021.4 |
| 20260502150259 | 18 | 49 | 3.2 | 12.9 | 0.00 | 0.00 | 0.00 | 69 | 1021.5 |
| 20260502130647 | 13 | 10 | 1.6 | 6.4 | 0.00 | 0.00 | 0.00 | 89 | 1020.2 |
| 20260502130145 | 13 | 233 | 1.6 | 3.2 | 0.00 | 0.00 | 0.00 | 90 | 1020.0 |
| 20260502123630 | 12 | 12 | 1.6 | 6.4 | 0.00 | 0.00 | 0.00 | 91 | 1019.7 |
| 20260502123127 | 12 | 14 | 0.0 | 3.2 | 0.00 | 0.00 | 0.00 | 91 | 1019.6 |
| 20260502122624 | 12 | 351 | 3.2 | 6.4 | 0.00 | 0.00 | 0.00 | 91 | 1019.4 |
| 20260502122120 | 12 | 354 | 0.0 | 4.8 | 0.00 | 0.00 | 0.00 | 91 | 1019.4 |
| 20260502121619 | 12 | 14 | 3.2 | 4.8 | 0.00 | 0.00 | 0.00 | 91 | 1019.4 |
| 20260502121116 | 12 | 350 | 1.6 | 3.2 | 0.00 | 0.00 | 0.00 | 91 | 1019.2 |
| 20260502120612 | 12 | 3 | 0.0 | 6.4 | 0.00 | 0.00 | 0.00 | 91 | 1019.1 |
| 20260502120109 | 12 | 351 | 1.6 | 6.4 | 0.00 | 0.00 | 0.00 | 91 | 1019.4 |
| 20260502115607 | 12 | 22 | 3.2 | 6.4 | 0.00 | 0.00 | 0.00 | 91 | 1019.2 |
| 20260502115102 | 12 | 347 | 1.6 | 3.2 | 0.00 | 0.00 | 0.00 | 91 | 1019.2 |
| 20260502114559 | 12 | 21 | 1.6 | 9.7 | 0.00 | 0.00 | 0.00 | 91 | 1018.9 |
| 20260502114056 | 12 | 314 | 3.2 | 6.4 | 0.00 | 0.00 | 0.00 | 91 | 1019.1 |
| 20260502113553 | 12 | 313 | 0.0 | 4.8 | 0.00 | 0.00 | 0.00 | 91 | 1018.9 |
| 20260502113052 | 12 | 37 | 0.0 | 6.4 | 0.00 | 0.00 | 0.00 | 91 | 1018.8 |
| 20260502112549 | 12 | 296 | 6.4 | 12.9 | 0.00 | 0.00 | 0.00 | 91 | 1018.7 |
| 20260502112047 | 12 | 11 | 3.2 | 6.4 | 0.00 | 0.00 | 0.00 | 91 | 1018.6 |
| 20260502111544 | 12 | 321 | 1.6 | 3.2 | 0.00 | 0.00 | 0.00 | 91 | 1018.4 |
| 20260502111041 | 12 | 11 | 0.0 | 3.2 | 0.00 | 0.00 | 0.00 | 91 | 1018.7 |
| 20260502110538 | 12 | 317 | 0.0 | 3.2 | 0.00 | 0.00 | 0.00 | 91 | 1018.7 |
| 20260502110036 | 11 | 311 | 1.6 | 1.6 | 0.00 | 0.00 | 0.00 | 91 | 1018.7 |
| 20260502105533 | 11 | 312 | 0.0 | 1.6 | 0.00 | 0.00 | 0.00 | 91 | 1018.6 |
| 20260502105031 | 11 | 297 | 0.0 | 1.6 | 0.00 | 0.00 | 0.00 | 90 | 1018.7 |
| 20260502104527 | 12 | 319 | 0.0 | 0.0 | 0.00 | 0.00 | 0.00 | 89 | 1018.4 |
| 20260502104025 | 12 | 310 | 0.0 | 0.0 | 0.00 | 0.00 | 0.00 | 88 | 1018.6 |
| 20260502103523 | 12 | 333 | 0.0 | 0.0 | 0.00 | 0.00 | 0.00 | 87 | 1018.5 |
| 20260502103021 | 12 | 358 | 0.0 | 3.2 | 0.00 | 0.00 | 0.00 | 87 | 1018.4 |
| 20260502102516 | 12 | 333 | 0.0 | 1.6 | 0.00 | 0.00 | 0.00 | 87 | 1018.2 |
| 20260502102014 | 12 | 325 | 0.0 | 1.6 | 0.00 | 0.00 | 0.00 | 87 | 1018.1 |
| 20260502101512 | 12 | 329 | 0.0 | 4.8 | 0.00 | 0.00 | 0.00 | 87 | 1017.9 |
| 20260502101010 | 12 | 335 | 1.6 | 1.6 | 0.00 | 0.00 | 0.00 | 86 | 1018.0 |
| 20260502100508 | 12 | 334 | 0.0 | 3.2 | 0.00 | 0.00 | 0.00 | 86 | 1017.9 |
| 20260502091442 | 13 | 15 | 0.0 | 3.2 | 0.00 | 0.00 | 0.00 | 87 | 1016.9 |
| 20260502090940 | 13 | 346 | 1.6 | 4.8 | 0.00 | 0.00 | 0.00 | 88 | 1017.0 |
| 20260502090436 | 13 | 357 | 3.2 | 9.7 | 0.00 | 0.00 | 0.00 | 88 | 1016.8 |
| 20260502071331 | 13 | 46 | 3.2 | 6.4 | 0.00 | 0.00 | 0.00 | 91 | 1016.8 |
| 20260502070829 | 13 | 305 | 1.6 | 6.4 | 0.00 | 0.00 | 0.00 | 91 | 1016.8 |
| 20260502070326 | 13 | 318 | 3.2 | 6.4 | 0.00 | 0.00 | 0.00 | 91 | 1016.8 |
| 20260502065825 | 13 | 340 | 1.6 | 6.4 | 0.00 | 0.00 | 0.00 | 91 | 1016.9 |
| 20260502065323 | 13 | 1 | 6.4 | 11.3 | 0.00 | 0.00 | 0.00 | 91 | 1016.9 |
| 20260502064821 | 13 | 22 | 3.2 | 4.8 | 0.00 | 0.00 | 0.00 | 92 | 1016.8 |
| 20260502064319 | 13 | 18 | 1.6 | 9.7 | 0.00 | 0.00 | 0.00 | 92 | 1016.8 |
| 20260502063816 | 13 | 317 | 1.6 | 6.4 | 0.00 | 0.00 | 0.00 | 92 | 1016.7 |
| 20260502063314 | 13 | 16 | 1.6 | 9.7 | 0.00 | 0.00 | 0.00 | 91 | 1016.7 |
| 20260502062810 | 13 | 306 | 3.2 | 9.7 | 0.00 | 0.00 | 0.00 | 91 | 1016.5 |
| 20260502062308 | 13 | 11 | 3.2 | 6.4 | 0.00 | 0.00 | 0.00 | 91 | 1016.6 |
| 20260502061806 | 13 | 12 | 3.2 | 4.8 | 0.00 | 0.00 | 0.00 | 92 | 1016.5 |
| 20260502061304 | 13 | 341 | 3.2 | 4.8 | 0.00 | 0.00 | 0.00 | 91 | 1016.5 |
| 20260502060759 | 13 | 128 | 4.8 | 11.3 | 0.00 | 0.00 | 0.00 | 91 | 1016.4 |
| 20260502060255 | 13 | 32 | 1.6 | 11.3 | 0.00 | 0.00 | 0.00 | 92 | 1016.5 |
| 20260502055753 | 13 | 315 | 6.4 | 12.9 | 0.00 | 0.00 | 0.00 | 92 | 1016.3 |
| 20260502055250 | 13 | 283 | 6.4 | 12.9 | 0.00 | 0.00 | 0.00 | 92 | 1016.2 |
| 20260502054749 | 13 | 23 | 6.4 | 11.3 | 0.00 | 0.00 | 0.00 | 92 | 1016.2 |
| 20260502054246 | 13 | 274 | 8.0 | 12.9 | 0.00 | 0.00 | 0.00 | 92 | 1016.1 |
| 20260502053744 | 13 | 288 | 3.2 | 12.9 | 0.00 | 0.00 | 0.00 | 92 | 1016.2 |
| 20260502053241 | 13 | 344 | 1.6 | 9.7 | 0.00 | 0.00 | 0.00 | 93 | 1016.3 |
| 20260502052739 | 13 | 85 | 3.2 | 11.3 | 0.00 | 0.00 | 0.00 | 93 | 1016.3 |
| 20260502052237 | 13 | 9 | 0.0 | 4.8 | 0.00 | 0.00 | 0.00 | 92 | 1016.3 |
| 20260502051735 | 13 | 24 | 1.6 | 6.4 | 0.00 | 0.00 | 0.00 | 92 | 1016.1 |
| 20260502051233 | 13 | 329 | 3.2 | 4.8 | 0.00 | 0.00 | 0.00 | 93 | 1016.3 |
| 20260502050729 | 13 | 34 | 3.2 | 9.7 | 0.00 | 0.00 | 0.00 | 93 | 1016.4 |
| 20260502050225 | 13 | 168 | 3.2 | 16.1 | 0.00 | 0.00 | 0.00 | 93 | 1016.5 |
| 20260502045722 | 13 | 22 | 8.0 | 12.9 | 0.00 | 8.13 | 8.13 | 93 | 1016.5 |
| 20260502045219 | 13 | 325 | 6.4 | 9.7 | 0.00 | 8.13 | 8.13 | 93 | 1016.4 |
| 20260502044716 | 13 | 16 | 6.4 | 9.7 | 0.00 | 8.13 | 8.13 | 94 | 1016.3 |
| 20260502044212 | 13 | 6 | 1.6 | 12.9 | 0.00 | 8.13 | 8.13 | 94 | 1016.1 |
| 20260502043710 | 13 | 309 | 3.2 | 11.3 | 0.00 | 8.13 | 8.13 | 94 | 1016.3 |
| 20260502043207 | 13 | 321 | 3.2 | 9.7 | 0.00 | 8.13 | 8.13 | 94 | 1016.4 |
| 20260502042706 | 13 | 58 | 6.4 | 12.9 | 0.00 | 8.13 | 8.13 | 94 | 1016.4 |
| 20260502042204 | 13 | 21 | 6.4 | 9.7 | 0.00 | 8.13 | 8.13 | 94 | 1016.2 |
| 20260502041701 | 13 | 28 | 1.6 | 9.7 | 0.00 | 8.13 | 8.13 | 94 | 1016.2 |
| 20260502041158 | 13 | 31 | 8.0 | 14.5 | 0.00 | 8.13 | 8.13 | 95 | 1016.3 |
| 20260502040655 | 13 | 17 | 4.8 | 12.9 | 0.00 | 8.13 | 8.13 | 95 | 1016.2 |
| 20260502040152 | 13 | 315 | 4.8 | 9.7 | 0.00 | 8.13 | 8.13 | 95 | 1016.2 |
| 20260502035648 | 13 | 330 | 3.2 | 6.4 | 0.00 | 8.13 | 8.13 | 95 | 1016.3 |
| 20260502035145 | 13 | 334 | 3.2 | 16.1 | 0.00 | 8.13 | 8.13 | 95 | 1016.1 |
| 20260502034643 | 13 | 24 | 4.8 | 11.3 | 0.00 | 8.13 | 8.13 | 95 | 1016.2 |
| 20260502034141 | 13 | 3 | 1.6 | 9.7 | 0.00 | 8.13 | 8.13 | 95 | 1015.9 |
| 20260502033639 | 13 | 26 | 1.6 | 6.4 | 0.00 | 8.13 | 8.13 | 95 | 1016.0 |
| 20260502033137 | 13 | 22 | 8.0 | 14.5 | 0.00 | 8.13 | 8.13 | 95 | 1015.7 |
| 20260502032632 | 14 | 331 | 4.8 | 9.7 | 0.00 | 8.13 | 8.13 | 96 | 1015.6 |
| 20260502032129 | 14 | 328 | 1.6 | 11.3 | 0.00 | 8.13 | 8.13 | 96 | 1015.5 |
| 20260502031627 | 14 | 3 | 1.6 | 4.8 | 0.00 | 8.13 | 8.13 | 96 | 1015.5 |
| 20260502031124 | 14 | 319 | 3.2 | 4.8 | 0.00 | 8.13 | 8.13 | 96 | 1015.3 |
| 20260502030623 | 14 | 11 | 6.4 | 16.1 | 0.00 | 8.13 | 8.13 | 96 | 1015.0 |
| 20260502030121 | 14 | 14 | 4.8 | 6.4 | 0.00 | 8.13 | 8.13 | 96 | 1015.3 |
| 20260502025618 | 14 | 352 | 3.2 | 4.8 | 0.00 | 8.13 | 8.13 | 96 | 1014.5 |
| 20260502025116 | 14 | 15 | 4.8 | 9.7 | 0.00 | 8.13 | 8.13 | 96 | 1014.8 |
| 20260502024614 | 14 | 333 | 3.2 | 14.5 | 0.00 | 8.13 | 8.13 | 97 | 1014.6 |
| 20260502024111 | 15 | 24 | 4.8 | 9.7 | 0.00 | 8.13 | 8.13 | 97 | 1014.4 |
| 20260502023609 | 15 | 344 | 1.6 | 14.5 | 0.13 | 8.13 | 8.13 | 97 | 1014.1 |
| 20260502023106 | 15 | 327 | 1.6 | 3.2 | 0.13 | 8.13 | 8.13 | 97 | 1014.3 |
| 20260502022602 | 15 | 335 | 3.2 | 6.4 | 0.00 | 8.10 | 8.10 | 97 | 1014.0 |
| 20260502022100 | 15 | 2 | 0.0 | 9.7 | 0.00 | 8.10 | 8.10 | 97 | 1013.9 |
| 20260502021557 | 15 | 19 | 1.6 | 6.4 | 0.00 | 8.10 | 8.10 | 97 | 1014.1 |
| 20260502021054 | 15 | 335 | 1.6 | 3.2 | 0.18 | 8.10 | 8.10 | 97 | 1014.2 |
| 20260502020551 | 15 | 36 | 3.2 | 12.9 | 0.18 | 8.10 | 8.10 | 97 | 1014.4 |
| 20260502020048 | 15 | 15 | 3.2 | 6.4 | 0.00 | 8.08 | 8.08 | 97 | 1014.4 |
| 20260502015546 | 15 | 275 | 1.6 | 6.4 | 0.13 | 8.08 | 8.08 | 97 | 1014.4 |
| 20260502015042 | 15 | 357 | 3.2 | 9.7 | 0.13 | 8.08 | 8.08 | 97 | 1014.3 |
| 20260502014539 | 15 | 10 | 3.2 | 6.4 | 0.18 | 8.05 | 8.05 | 97 | 1014.4 |
| 20260502014037 | 15 | 10 | 3.2 | 6.4 | 0.30 | 8.05 | 8.05 | 97 | 1014.0 |
| 20260502013532 | 15 | 16 | 3.2 | 6.4 | 0.30 | 8.03 | 8.03 | 97 | 1013.9 |
| 20260502013028 | 15 | 19 | 1.6 | 3.2 | 0.18 | 8.00 | 8.00 | 97 | 1013.9 |
| 20260502012526 | 15 | 331 | 3.2 | 4.8 | 0.00 | 7.98 | 7.98 | 97 | 1014.0 |
| 20260502012023 | 15 | 311 | 1.6 | 3.2 | 0.00 | 7.98 | 7.98 | 97 | 1013.6 |
| 20260502011520 | 15 | 36 | 1.6 | 6.4 | 0.00 | 7.98 | 7.98 | 97 | 1013.5 |
| 20260502011016 | 15 | 14 | 4.8 | 6.4 | 0.13 | 7.98 | 7.98 | 97 | 1013.2 |
| 20260502010514 | 15 | 14 | 1.6 | 6.4 | 0.48 | 7.98 | 7.98 | 97 | 1013.2 |
| 20260502010010 | 15 | 20 | 3.2 | 6.4 | 0.36 | 7.95 | 7.95 | 97 | 1012.9 |
| 20260502005508 | 15 | 13 | 1.6 | 4.8 | 0.00 | 7.90 | 7.90 | 97 | 1013.3 |
| 20260502005005 | 15 | 328 | 1.6 | 3.2 | 0.00 | 7.90 | 7.90 | 97 | 1013.1 |
| 20260502004500 | 15 | 14 | 1.6 | 4.8 | 0.00 | 7.90 | 7.90 | 97 | 1013.1 |
| 20260502003958 | 15 | 4 | 0.0 | 3.2 | 0.00 | 7.90 | 7.90 | 97 | 1012.8 |
| 20260502003455 | 15 | 8 | 3.2 | 14.5 | 0.13 | 7.90 | 7.90 | 97 | 1012.4 |
| 20260502002951 | 15 | 57 | 3.2 | 9.7 | 0.13 | 7.90 | 7.90 | 97 | 1012.0 |
| 20260502002449 | 15 | 3 | 4.8 | 11.3 | 0.00 | 7.87 | 7.87 | 97 | 1011.9 |
| 20260502001946 | 15 | 26 | 3.2 | 4.8 | 0.18 | 7.87 | 7.87 | 97 | 1012.0 |
| 20260502001443 | 15 | 354 | 1.6 | 4.8 | 0.48 | 7.87 | 7.87 | 97 | 1012.2 |
| 20260502000941 | 15 | 8 | 0.0 | 3.2 | 0.71 | 7.85 | 7.85 | 97 | 1012.5 |
| 20260502000440 | 15 | 26 | 6.4 | 9.7 | 1.07 | 7.80 | 7.80 | 97 | 1012.3 |
| 20260501235935 | 15 | 350 | 3.2 | 11.3 | 1.19 | 7.70 | 7.70 | 97 | 1012.4 |
| 20260501235431 | 15 | 59 | 4.8 | 11.3 | 1.37 | 7.59 | 7.59 | 97 | 1012.6 |
| 20260501234926 | 15 | 301 | 1.6 | 3.2 | 0.71 | 7.47 | 7.47 | 97 | 1012.5 |
| 20260501234423 | 16 | 267 | 3.2 | 14.5 | 0.30 | 7.37 | 7.37 | 97 | 1011.7 |
| 20260501233922 | 15 | 349 | 3.2 | 6.4 | 0.00 | 7.32 | 7.32 | 97 | 1011.3 |
| 20260501233419 | 16 | 27 | 6.4 | 14.5 | 0.18 | 7.32 | 7.32 | 97 | 1011.4 |
| 20260501232914 | 16 | 358 | 3.2 | 9.7 | 0.61 | 7.32 | 7.32 | 97 | 1010.5 |
| 20260501232412 | 16 | 9 | 8.0 | 16.1 | 0.71 | 7.29 | 7.29 | 97 | 1010.6 |
| 20260501231909 | 16 | 11 | 3.2 | 12.9 | 0.48 | 7.21 | 7.21 | 97 | 1011.2 |
| 20260501231408 | 16 | 320 | 1.6 | 9.7 | 0.30 | 7.16 | 7.16 | 97 | 1011.4 |
| 20260501230905 | 16 | 8 | 1.6 | 9.7 | 0.61 | 7.14 | 7.14 | 97 | 1011.2 |
| 20260501230404 | 16 | 353 | 3.2 | 14.5 | 0.97 | 7.11 | 7.11 | 97 | 1010.9 |
| 20260501225901 | 16 | 20 | 4.8 | 12.9 | 1.50 | 7.04 | 7.04 | 97 | 1010.6 |
| 20260501225359 | 16 | 22 | 3.2 | 11.3 | 0.71 | 6.91 | 6.91 | 96 | 1011.2 |
| 20260501224854 | 16 | 344 | 3.2 | 11.3 | 0.00 | 6.78 | 6.78 | 96 | 1011.2 |
| 20260501224352 | 16 | 26 | 3.2 | 6.4 | 0.00 | 6.78 | 6.78 | 96 | 1011.0 |
| 20260501223848 | 16 | 11 | 1.6 | 9.7 | 0.00 | 6.78 | 6.78 | 97 | 1011.0 |
| 20260501223344 | 16 | 44 | 3.2 | 4.8 | 0.00 | 6.78 | 6.78 | 97 | 1011.1 |
| 20260501222840 | 16 | 46 | 3.2 | 4.8 | 0.00 | 6.78 | 6.78 | 97 | 1011.0 |
| 20260501222338 | 16 | 24 | 0.0 | 6.4 | 0.00 | 6.78 | 6.78 | 97 | 1010.8 |
| 20260501221834 | 17 | 36 | 1.6 | 6.4 | 0.00 | 6.78 | 6.78 | 97 | 1010.8 |
| 20260501221332 | 17 | 9 | 4.8 | 11.3 | 0.00 | 6.78 | 6.78 | 97 | 1010.6 |
| 20260501220830 | 17 | 322 | 3.2 | 14.5 | 0.00 | 6.78 | 6.78 | 97 | 1010.8 |
| 20260501220327 | 17 | 6 | 4.8 | 9.7 | 0.18 | 6.78 | 6.78 | 97 | 1011.1 |
| 20260501215823 | 17 | 103 | 1.6 | 9.7 | 0.00 | 6.76 | 6.76 | 97 | 1011.0 |
| 20260501215319 | 17 | 0 | 3.2 | 9.7 | 0.00 | 6.76 | 6.76 | 97 | 1011.1 |
| 20260501214815 | 17 | 333 | 1.6 | 9.7 | 0.00 | 6.76 | 6.76 | 97 | 1011.2 |
| 20260501214310 | 17 | 33 | 4.8 | 6.4 | 0.13 | 6.76 | 6.76 | 98 | 1011.2 |
| 20260501213807 | 17 | 61 | 3.2 | 6.4 | 0.13 | 6.76 | 6.76 | 98 | 1011.2 |
| 20260501213303 | 17 | 355 | 0.0 | 9.7 | 0.00 | 6.73 | 6.73 | 98 | 1011.9 |
| 20260501212759 | 17 | 13 | 1.6 | 3.2 | 0.00 | 6.73 | 6.73 | 98 | 1011.7 |
| 20260501212255 | 17 | 13 | 1.6 | 4.8 | 0.00 | 6.73 | 6.73 | 98 | 1011.2 |
| 20260501211753 | 17 | 350 | 1.6 | 12.9 | 0.00 | 6.73 | 6.73 | 98 | 1010.9 |
| 20260501211250 | 17 | 24 | 0.0 | 4.8 | 0.00 | 6.73 | 6.73 | 98 | 1011.2 |
| 20260501210747 | 17 | 327 | 3.2 | 3.2 | 0.00 | 6.73 | 6.73 | 98 | 1011.1 |
| 20260501210244 | 17 | 321 | 3.2 | 9.7 | 0.30 | 6.73 | 6.73 | 98 | 1010.4 |
| 20260501205740 | 17 | 32 | 3.2 | 3.2 | 1.27 | 6.73 | 6.73 | 98 | 1010.7 |
| 20260501205237 | 17 | 27 | 3.2 | 4.8 | 1.27 | 6.68 | 6.68 | 98 | 1010.6 |
| 20260501204734 | 17 | 335 | 1.6 | 6.4 | 0.30 | 6.50 | 6.50 | 98 | 1010.3 |
| 20260501204231 | 17 | 124 | 1.6 | 4.8 | 0.43 | 6.48 | 6.48 | 98 | 1010.1 |
| 20260501203727 | 17 | 16 | 3.2 | 9.7 | 0.48 | 6.45 | 6.45 | 98 | 1009.9 |
| 20260501203225 | 17 | 34 | 9.7 | 14.5 | 0.36 | 6.40 | 6.40 | 98 | 1009.7 |
| 20260501202721 | 17 | 9 | 3.2 | 11.3 | 0.30 | 6.38 | 6.38 | 98 | 1010.1 |
| 20260501202218 | 17 | 8 | 4.8 | 11.3 | 0.30 | 6.35 | 6.35 | 98 | 1009.6 |
| 20260501201715 | 17 | 290 | 3.2 | 11.3 | 0.30 | 6.32 | 6.32 | 98 | 1009.9 |
| 20260501201212 | 17 | 273 | 3.2 | 6.4 | 0.43 | 6.30 | 6.30 | 98 | 1010.0 |
| 20260501200709 | 17 | 356 | 3.2 | 6.4 | 0.13 | 6.25 | 6.25 | 98 | 1009.5 |
| 20260501200206 | 17 | 77 | 3.2 | 6.4 | 0.00 | 6.22 | 6.22 | 98 | 1010.2 |
| 20260501195703 | 17 | 89 | 1.6 | 4.8 | 0.18 | 6.22 | 6.22 | 98 | 1009.8 |
| 20260501195159 | 17 | 339 | 1.6 | 4.8 | 0.30 | 6.22 | 6.22 | 98 | 1009.8 |
| 20260501194655 | 17 | 22 | 1.6 | 4.8 | 1.37 | 6.20 | 6.20 | 98 | 1010.2 |
| 20260501194150 | 17 | 321 | 3.2 | 6.4 | 2.29 | 6.17 | 6.17 | 98 | 1009.5 |
| 20260501193648 | 17 | 122 | 3.2 | 6.4 | 2.59 | 5.89 | 5.89 | 97 | 1009.8 |
| 20260501193147 | 17 | 146 | 1.6 | 3.2 | 4.55 | 5.77 | 5.77 | 97 | 1010.1 |
| 20260501192643 | 17 | 14 | 0.0 | 4.8 | 4.55 | 5.44 | 5.44 | 97 | 1009.5 |
| 20260501192140 | 17 | 28 | 1.6 | 1.6 | 2.16 | 4.95 | 4.95 | 97 | 1010.0 |
| 20260501191638 | 17 | 302 | 4.8 | 4.8 | 0.79 | 4.67 | 4.67 | 97 | 1010.4 |
| 20260501191135 | 17 | 14 | 3.2 | 9.7 | 0.61 | 4.62 | 4.62 | 97 | 1009.5 |
| 20260501190631 | 17 | 12 | 3.2 | 9.7 | 0.30 | 4.55 | 4.55 | 97 | 1009.6 |
| 20260501190126 | 17 | 297 | 0.0 | 4.8 | 0.30 | 4.52 | 4.52 | 97 | 1009.2 |
| 20260501185623 | 17 | 5 | 3.2 | 9.7 | 0.13 | 4.50 | 4.50 | 97 | 1009.5 |
| 20260501185118 | 17 | 331 | 3.2 | 9.7 | 0.18 | 4.47 | 4.47 | 97 | 1009.0 |
| 20260501184615 | 17 | 184 | 3.2 | 14.5 | 0.66 | 4.47 | 4.47 | 97 | 1009.3 |
| 20260501184109 | 17 | 16 | 1.6 | 4.8 | 0.61 | 4.42 | 4.42 | 97 | 1009.4 |
| 20260501183606 | 17 | 46 | 1.6 | 6.4 | 0.43 | 4.37 | 4.37 | 97 | 1009.8 |
| 20260501183103 | 17 | 30 | 3.2 | 4.8 | 0.18 | 4.29 | 4.29 | 97 | 1011.4 |
| 20260501182600 | 17 | 315 | 1.6 | 3.2 | 0.30 | 4.29 | 4.29 | 97 | 1011.6 |
| 20260501182057 | 17 | 288 | 0.0 | 1.6 | 0.43 | 4.27 | 4.27 | 97 | 1010.7 |
| 20260501181554 | 17 | 313 | 1.6 | 6.4 | 0.61 | 4.24 | 4.24 | 97 | 1009.9 |
| 20260501181050 | 17 | 81 | 6.4 | 14.5 | 0.79 | 4.19 | 4.19 | 97 | 1009.8 |
| 20260501180548 | 17 | 6 | 3.2 | 3.2 | 0.61 | 4.11 | 4.11 | 97 | 1010.4 |
| 20260501180044 | 17 | 15 | 3.2 | 9.7 | 0.30 | 4.06 | 4.06 | 97 | 1011.5 |
| 20260501175541 | 17 | 318 | 0.0 | 3.2 | 0.00 | 4.01 | 4.01 | 97 | 1011.4 |
| 20260501175038 | 17 | 14 | 1.6 | 6.4 | 0.00 | 4.01 | 4.01 | 97 | 1011.0 |
| 20260501174535 | 17 | 128 | 3.2 | 9.7 | 0.18 | 4.01 | 4.01 | 97 | 1010.6 |
| 20260501174033 | 17 | 58 | 1.6 | 4.8 | 0.18 | 4.01 | 4.01 | 97 | 1010.6 |
| 20260501173530 | 17 | 8 | 3.2 | 9.7 | 0.00 | 3.99 | 3.99 | 97 | 1010.9 |
| 20260501173026 | 17 | 21 | 3.2 | 6.4 | 0.00 | 3.99 | 3.99 | 97 | 1011.1 |
| 20260501172522 | 17 | 92 | 8.0 | 14.5 | 0.00 | 3.99 | 3.99 | 97 | 1010.7 |
| 20260501172018 | 17 | 84 | 4.8 | 9.7 | 0.13 | 3.99 | 3.99 | 97 | 1010.4 |
| 20260501171514 | 17 | 48 | 3.2 | 3.2 | 0.30 | 3.99 | 3.99 | 97 | 1010.8 |
| 20260501171011 | 17 | 245 | 3.2 | 9.7 | 0.61 | 3.96 | 3.96 | 97 | 1010.7 |
| 20260501170507 | 17 | 345 | 3.2 | 6.4 | 0.43 | 3.94 | 3.94 | 97 | 1011.1 |
| 20260501170005 | 17 | 2 | 3.2 | 6.4 | 0.00 | 3.86 | 3.86 | 97 | 1011.7 |
| 20260501165503 | 17 | 48 | 3.2 | 4.8 | 0.00 | 3.86 | 3.86 | 97 | 1011.9 |
| 20260501165000 | 17 | 18 | 0.0 | 9.7 | 0.18 | 3.86 | 3.86 | 97 | 1011.5 |
| 20260501164458 | 17 | 342 | 1.6 | 6.4 | 0.36 | 3.86 | 3.86 | 97 | 1011.5 |
| 20260501163954 | 17 | 45 | 3.2 | 9.7 | 0.48 | 3.84 | 3.84 | 97 | 1011.6 |
| 20260501163450 | 17 | 34 | 3.2 | 6.4 | 1.98 | 3.78 | 3.78 | 97 | 1011.9 |